Regional Weather Roundup
Issued by NWS

Home | Current Version | Previous Version | Graphics & Text | Print | Product List | Glossary On
Versions: 1 2 3 4 5 6 7 8 9 10 11 12 13 14 15 16 17 18 19 20 21 22 23 24 25 26 27 28 29 30 31 32 33 34 35 36 37 38 39 40 41 42 43 44 45 46 47 48 49 50
000
ASUS44 KMEG 261210
RWRTN
TENNESSEE HOURLY STATE WEATHER ROUNDUP
NATIONAL WEATHER SERVICE MEMPHIS TN
700 AM CDT SAT JUL 26 2014

TNZ002-004-019-021-049-052-054-088>092-261300-
WEST TENNESSEE

CITY           SKY/WX    TMP DP  RH WIND       PRES   REMARKS
MEMPHIS INTL   PTCLDY    73  66  78 S6        30.02R
NWS MEMPHIS      N/A     70 N/A N/A MISG        N/A
JACKSON        SUNNY     68  65  90 S6        30.01R
DYERSBURG      SUNNY     70  59  68 CALM      30.00S
UNION CITY     SUNNY     66  64  94 S5        29.98R
PARIS          SUNNY     66  62  87 S3        30.01R
LEXINGTON      SUNNY     64  63  94 CALM      30.01S
SAVANNAH       SUNNY     64  64 100 CALM      30.04R
$$

TNZ008-025-027-028-033-062-065-066-261300-
NORTH MIDDLE TENNESSEE

CITY           SKY/WX    TMP DP  RH WIND       PRES   REMARKS
NASHVILLE      MOSUNNY   67  64  90 CALM      30.03R
DICKSON        SUNNY     66  64  94 S6        30.02S
CLARKSVILLE    SUNNY     65  63  93 CALM      30.01R FOG
LEBANON        SUNNY     66  61  84 CALM      30.01S
SMYRNA         SUNNY     65  65 100 CALM      30.04R
MURFREESBORO   SUNNY     67  63  87 CALM      30.03R
COOKEVILLE     SUNNY     64  61  88 CALM      30.04S
GALLATIN       SUNNY     65  65 100 CALM      30.03R
CROSSVILLE     SUNNY     65  60  84 CALM      30.09R
$$

TNZ061-075-076-078-094-096-097-261300-
SOUTH MIDDLE TENNESSEE

CITY           SKY/WX    TMP DP  RH WIND       PRES   REMARKS
LEWISBURG      SUNNY     64  60  87 CALM      30.04R
FAYETTEVILLE   SUNNY     64  63  94 CALM      30.06S
TULLAHOMA      SUNNY     64  61  88 CALM      30.07R
WINCHESTER     SUNNY     64  63  94 CALM      30.07R
MCMINNVILLE    SUNNY     64  64 100 CALM      30.06R
COLUMBIA       SUNNY     66  64  94 CALM      30.02S
SHELBYVILLE    SUNNY     64  64 100 CALM      30.05S
$$

TNZ017-018-042-046-047-261300-
NORTHEAST TENNESSEE

CITY           SKY/WX    TMP DP  RH WIND       PRES   REMARKS
TRI CITIES     MOSUNNY   66  62  87 CALM      30.09R
ELIZABETHTON   PTSUNNY   64  63  94 CALM      30.10R
$$

TNZ012-013-036-069-073-074-261300-
CENTRAL EAST TENNESSEE

CITY           SKY/WX    TMP DP  RH WIND       PRES   REMARKS
KNOXVILLE      PTSUNNY   66  63  90 NE3       30.06R
OAK RIDGE      FOG       64  64 100 CALM      30.08R VSB 1/4
GATLINBURG     SUNNY     64  63  94 CALM      30.07R
MORRISTOWN     SUNNY     66  64  94 CALM      30.09R
$$

TNZ083-085-099-261300-
SOUTHEAST TENNESSEE

CITY           SKY/WX    TMP DP  RH WIND       PRES   REMARKS
CHATTANOOGA    MOSUNNY   67  64  90 CALM      30.06R
$$

SKY/WX REPORTED AS FAIR MEANS FEW OR NO CLOUDS BELOW
12 THOUSAND FEET.



USA.gov is the U.S. government's official web portal to all federal, state and local government web resources and services.